Theta_e
314 316 316 318 317 315 315 313 317 319 317 317 318 322 323 321 318 316 316 311 307 315 319 318 320 318 320 318 313 312 312 310 311 314 315 315 315 315 316 316 316 317 317 318 317 317 317 316 316 316 316 316 316 316 317 316 316 317 316 316 316 316 316 316 316 316 316 317 317 318 319 319 318 319 320 321 322 322 323 324 325 324 324 326 327 328
314 317 318 318 315 313 313 314 316 317 316 317 318 321 319 318 320 314 314 313 307 312 318 315 318 318 318 319 312 309 311 311 312 313 314 316 315 316 316 315 316 316 316 316 316 316 315 316 315 315 315 316 317 317 317 317 317 317 317 317 317 316 316 316 316 316 316 316 316 317 316 317 318 319 320 321 323 324 324 322 323 326 330 331 331 328
315 319 319 313 308 309 312 315 318 319 319 320 317 319 319 318 319 315 313 315 310 313 319 317 319 319 318 318 312 307 309 311 312 312 312 314 314 315 315 315 315 315 315 314 314 314 314 314 314 314 315 315 316 316 316 317 317 317 317 317 317 317 317 316 317 317 317 317 316 317 317 317 318 319 321 322 323 324 325 325 324 326 328 331 333 330
317 320 315 306 305 312 315 315 318 318 318 320 319 321 319 316 319 319 315 315 312 311 316 318 317 318 316 317 315 308 306 309 310 311 311 312 313 314 314 314 314 314 314 314 314 314 314 314 314 314 314 315 315 316 316 316 317 317 317 317 317 317 317 316 317 317 317 317 317 318 318 319 320 321 323 325 325 325 325 325 325 325 325 328 331 331
317 313 306 304 309 316 316 314 318 319 316 317 324 329 323 319 320 318 315 316 314 311 313 315 315 323 325 324 323 312 304 307 308 309 311 311 312 312 313 313 314 314 314 314 315 315 314 314 315 315 314 314 314 315 315 316 316 316 316 317 317 317 317 317 317 317 317 317 318 318 319 320 321 322 323 324 324 323 322 322 322 322 323 325 328 331
315 307 305 309 312 316 317 316 319 321 318 315 323 329 325 326 324 318 316 317 318 315 311 310 314 330 334 329 327 319 313 314 309 305 309 312 312 311 313 313 313 313 313 314 314 313 314 314 314 315 315 315 315 315 315 315 315 316 316 316 316 316 316 316 317 317 317 318 318 318 319 319 320 320 320 320 319 319 319 319 320 321 322 323 324 326
313 307 309 315 315 316 316 316 316 319 320 316 317 319 321 327 325 321 318 315 318 315 308 309 315 322 326 326 326 320 318 321 314 306 308 312 314 313 313 314 313 313 313 313 313 313 313 314 315 316 315 315 315 315 315 315 315 315 315 316 316 316 316 316 316 316 317 318 318 318 319 319 319 319 318 317 318 319 319 320 321 322 322 322 323 323
312 311 312 315 318 318 316 316 315 316 320 317 314 316 322 326 324 325 324 320 321 314 312 317 318 315 318 320 320 316 317 321 320 314 310 311 314 314 313 314 313 314 314 313 313 314 315 316 316 316 317 316 316 316 316 316 316 315 316 316 316 316 316 316 316 316 317 317 317 318 318 318 318 318 318 318 319 320 320 321 321 321 322 322 323 323
311 317 316 316 320 319 317 318 314 316 322 317 311 315 321 322 325 329 329 326 319 311 317 323 314 312 320 323 319 314 314 317 320 319 313 311 314 315 314 315 314 314 315 315 315 316 316 316 316 316 316 316 316 317 316 316 316 316 316 316 316 316 316 316 316 316 316 317 317 317 317 318 318 318 318 319 319 320 320 320 320 321 321 321 322 323
311 315 313 315 319 317 316 314 312 319 323 313 307 313 317 318 323 325 326 325 318 314 323 322 312 311 319 327 326 315 312 318 320 319 313 311 313 314 315 315 315 315 315 316 316 316 316 316 316 316 316 316 316 316 316 317 317 316 316 317 317 317 317 317 316 316 317 317 316 317 317 316 317 317 317 318 318 319 320 319 320 320 320 320 321 321
310 310 310 312 315 313 312 310 309 314 313 308 312 317 316 321 324 323 323 321 316 322 326 317 312 313 312 323 327 315 311 315 316 317 314 311 313 314 314 314 314 315 315 315 315 315 315 315 316 316 316 316 317 317 317 317 316 317 317 317 317 317 317 317 317 317 317 317 317 317 317 316 316 316 316 316 316 317 318 317 318 318 319 319 320 321
312 313 312 311 310 309 313 313 308 307 307 311 322 322 317 322 324 324 326 318 315 326 322 311 311 313 311 320 321 314 315 315 312 315 316 313 313 313 314 314 314 315 315 314 315 314 315 315 315 315 315 316 316 317 317 317 317 317 316 317 317 316 317 316 316 317 316 316 316 316 316 316 315 315 315 315 315 315 315 315 315 316 316 317 318 319
317 317 312 310 310 310 318 320 312 310 313 316 320 321 320 320 318 322 328 319 317 323 314 309 312 311 313 318 315 314 319 316 309 310 312 311 311 314 314 314 314 315 315 314 315 315 315 315 315 315 315 315 316 315 316 316 316 316 316 316 316 316 316 316 316 316 316 316 316 316 316 315 315 315 315 314 314 314 314 314 314 314 314 315 315 316
319 320 315 314 313 311 315 319 316 316 317 315 316 319 322 319 314 317 321 314 314 317 310 307 311 314 316 315 315 317 314 310 308 307 310 311 311 314 313 313 315 315 315 315 315 315 315 315 315 315 315 315 316 316 315 315 315 315 315 315 315 316 315 316 315 315 316 316 316 316 316 316 316 315 315 315 315 314 314 314 313 313 313 314 314 315
320 321 318 317 314 313 314 316 318 319 316 313 315 315 317 323 322 318 319 318 319 317 311 307 311 320 320 312 312 313 307 306 308 308 310 311 312 313 312 314 316 314 315 315 314 315 314 314 314 314 315 315 315 315 315 315 315 315 315 315 315 315 315 316 315 315 315 315 316 315 316 315 315 316 316 316 316 315 315 314 314 314 313 314 314 314
318 318 317 313 309 312 315 313 314 318 316 313 312 312 313 320 323 315 312 317 317 314 313 311 315 321 317 310 310 307 304 306 307 308 311 311 312 313 312 315 315 314 315 314 314 315 314 314 314 314 314 314 315 315 314 315 314 314 315 315 315 315 315 315 315 316 316 316 316 315 315 315 315 315 316 316 316 316 315 315 314 314 314 314 314 314
316 315 314 312 310 311 312 310 309 312 316 313 311 315 316 314 320 315 308 308 310 311 314 313 315 319 314 311 316 313 310 310 309 308 309 310 312 312 313 315 314 314 315 314 314 314 314 314 314 314 314 314 314 314 314 314 314 315 315 315 315 315 315 315 315 315 315 315 316 315 315 315 315 315 315 315 316 315 315 315 315 315 315 315 314 314
319 317 313 314 315 310 308 308 307 307 311 317 317 316 312 308 315 317 312 314 313 313 317 314 313 317 315 316 321 316 311 313 314 310 307 308 311 311 314 315 314 315 314 314 314 313 314 314 313 314 314 314 314 314 314 314 314 314 314 315 315 315 315 315 315 315 315 315 315 315 315 315 315 315 315 315 315 315 315 315 315 315 315 315 314 314
320 320 313 311 315 312 310 312 312 308 308 314 316 312 311 315 318 314 312 318 316 312 319 318 311 310 313 319 323 316 313 315 314 312 309 308 309 311 315 314 314 315 314 314 314 313 314 314 313 314 314 314 314 314 314 314 314 314 314 314 315 315 315 315 315 315 315 315 315 315 315 315 315 315 314 315 315 315 315 315 315 315 315 315 315 314
316 321 315 310 311 313 314 314 316 315 309 309 310 307 313 322 321 315 313 316 315 312 318 320 315 316 316 318 321 314 315 315 312 314 313 308 309 313 315 314 314 314 314 314 314 313 314 314 314 314 314 314 314 314 314 314 314 314 314 315 315 315 315 315 315 315 315 315 315 315 315 315 315 315 315 315 314 315 315 315 315 315 315 315 315 315
314 315 313 311 311 313 317 316 315 317 313 311 312 310 313 315 313 314 313 312 315 317 319 317 319 327 322 314 316 315 315 314 312 315 313 308 311 315 314 314 314 313 314 313 313 313 314 313 314 314 314 315 314 315 315 314 315 315 314 315 315 315 315 315 315 315 315 315 315 315 315 315 315 315 315 315 314 315 315 315 315 315 315 315 315 315
313 313 315 316 314 315 319 315 311 314 314 313 313 313 314 314 314 316 313 311 312 315 319 315 314 325 322 310 313 316 312 309 307 308 309 309 313 315 313 314 314 313 314 313 313 314 314 314 314 314 315 315 315 315 315 315 315 314 315 315 314 315 315 315 315 315 315 315 315 315 315 314 315 315 315 315 315 314 315 315 315 315 315 315 315 315
311 316 321 319 317 317 315 308 304 309 313 313 313 314 315 314 315 318 317 315 311 309 312 313 311 322 323 308 307 309 303 302 304 307 310 312 313 314 314 314 313 313 313 313 313 314 314 314 314 315 315 315 315 315 315 315 314 314 315 314 314 315 314 315 315 315 315 315 315 315 314 315 315 314 315 314 314 314 315 315 315 315 315 315 315 315
310 316 318 317 319 319 315 309 305 308 311 313 315 315 314 314 316 321 321 318 315 312 313 312 311 322 325 306 300 302 301 303 306 309 311 312 313 313 313 313 313 313 313 313 314 314 314 315 314 315 315 314 315 315 314 314 314 314 314 314 315 314 314 315 314 314 315 314 314 314 314 314 314 314 314 314 314 314 314 315 315 314 315 315 315 315
311 316 316 315 319 319 316 315 314 313 313 315 318 316 314 316 315 316 315 312 313 316 317 315 316 324 326 312 304 305 306 306 306 309 311 312 312 312 312 312 312 312 313 313 313 314 314 314 314 314 314 314 314 314 314 314 314 314 314 314 314 314 314 314 314 314 314 314 314 314 314 314 314 314 314 314 314 314 314 314 314 314 315 314 315 315
313 316 315 314 315 314 315 316 316 316 313 314 318 315 312 315 314 313 315 314 314 316 314 314 318 320 319 315 311 311 311 310 308 309 311 311 311 312 312 312 313 313 313 313 313 314 313 313 314 314 313 314 314 313 314 314 314 313 313 313 313 314 314 314 314 314 314 314 314 314 314 314 314 314 314 314 314 314 314 314 314 314 314 314 314 314
318 317 313 313 313 312 313 316 317 318 316 314 316 315 312 314 313 315 319 316 314 315 313 313 317 316 314 313 313 314 315 315 311 308 310 311 311 312 312 312 313 313 313 313 313 313 314 314 314 314 313 313 313 313 313 313 313 313 313 313 313 313 313 313 314 314 314 314 314 314 314 314 314 314 314 314 314 314 314 314 314 314 314 314 314 314
320 315 312 313 313 311 315 319 318 318 318 316 316 316 314 313 314 315 316 314 314 315 313 313 314 314 313 315 316 316 316 315 310 307 310 312 311 312 312 312 313 312 313 313 313 314 314 314 314 313 313 313 313 313 313 313 313 313 313 313 313 313 313 313 313 313 313 314 314 314 314 314 314 314 313 313 313 313 313 313 314 314 314 314 314 314
317 314 313 313 312 311 315 319 317 316 317 316 315 316 315 313 314 314 313 313 314 314 312 313 314 313 312 314 317 315 311 311 310 309 311 312 311 312 312 312 313 313 313 314 314 314 314 313 314 313 313 313 313 313 313 313 313 313 313 313 313 313 313 313 313 313 313 313 313 313 313 313 313 313 313 313 313 313 313 313 313 313 314 314 314 314
314 317 317 313 310 312 316 318 316 316 316 315 314 315 314 313 313 313 313 313 313 313 313 313 315 315 312 313 315 311 307 308 309 310 311 311 311 312 312 313 313 313 313 313 313 313 313 312 313 312 312 313 312 313 313 313 313 313 313 313 313 313 313 313 313 313 313 313 313 313 313 313 313 313 313 313 313 313 313 312 313 313 313 314 314 313
310 318 317 312 311 314 315 317 316 314 315 316 315 314 312 312 312 312 312 312 312 313 312 312 314 315 311 310 310 307 307 309 309 310 311 311 311 312 313 313 313 313 313 312 311 311 311 311 311 311 312 312 311 312 312 312 312 312 312 312 312 312 312 312 312 312 312 312 312 312 312 312 312 312 312 312 312 312 312 312 313 313 313 313 313 313
312 315 315 313 314 316 314 314 314 311 311 314 315 315 313 312 312 311 311 312 312 313 313 312 313 313 310 308 308 308 308 309 310 310 311 311 312 312 312 312 313 313 312 311 311 311 310 310 311 310 310 311 311 311 311 311 312 311 311 312 312 312 312 311 311 311 311 311 311 311 311 311 311 311 311 312 312 312 312 312 312 312 313 313 313 313
315 318 318 316 316 316 312 312 314 312 312 314 314 314 313 311 311 311 311 312 312 312 314 313 312 313 312 310 311 312 310 309 310 310 311 312 312 312 312 312 311 311 311 311 310 310 310 310 309 309 309 309 309 309 310 310 310 310 310 310 310 310 310 310 310 310 310 310 310 310 310 310 310 310 310 311 311 311 311 312 312 312 312 312 312 313
315 320 320 317 318 318 311 311 315 314 314 315 314 313 312 311 311 312 312 312 311 311 312 312 313 317 316 312 313 315 312 310 310 310 311 312 311 311 311 310 310 310 310 310 309 309 309 309 308 308 307 307 307 307 308 308 308 308 308 308 308 308 308 308 308 308 308 309 309 308 309 309 309 309 309 309 310 310 310 310 311 311 311 311 312 312
316 319 318 317 319 317 312 313 316 316 314 316 319 317 312 310 311 312 312 312 311 310 311 311 313 315 313 309 311 312 310 310 311 311 310 310 310 310 310 309 309 309 308 308 308 308 308 308 307 307 306 305 305 305 305 305 305 305 304 304 305 305 305 305 306 306 306 306 307 307 307 307 308 308 308 308 308 309 309 309 310 310 310 311 311 311
318 317 317 317 318 315 313 314 317 318 315 316 320 317 311 311 312 311 312 313 312 312 311 311 311 310 308 308 310 310 310 310 309 308 308 308 309 309 309 308 307 307 307 306 306 306 306 305 305 305 303 302 302 302 302 302 302 302 302 301 302 302 302 302 302 303 303 303 304 304 304 305 305 305 306 306 307 307 308 308 309 309 310 310 310 311
317 317 315 316 317 315 315 315 316 319 318 317 319 317 313 313 313 313 314 314 313 312 310 310 311 309 308 309 310 309 308 308 307 305 305 306 307 306 306 306 305 304 304 303 302 302 301 301 301 301 301 300 300 300 300 300 300 300 300 300 300 300 300 300 300 301 301 301 301 301 301 302 302 302 303 303 304 305 306 307 308 309 309 309 310 310
314 315 314 316 316 315 317 316 317 319 318 317 318 316 312 311 311 312 314 315 315 312 308 310 313 310 306 306 307 307 308 310 310 307 303 304 305 304 303 303 302 302 301 300 300 299 299 299 299 299 299 299 299 299 300 300 300 300 300 300 300 300 300 300 300 300 300 300 300 300 300 300 300 300 300 301 302 302 304 306 308 309 309 309 310 310
311 312 313 314 315 315 316 317 317 318 318 319 320 316 310 310 310 310 314 317 315 310 307 309 311 309 306 305 304 305 309 314 315 307 301 302 303 301 301 301 300 300 299 299 299 299 299 299 299 299 299 299 299 299 299 300 300 300 300 300 300 300 300 300 301 301 301 300 300 300 300 300 300 300 300 300 300 300 301 303 306 308 309 310 309 310
310 311 311 312 314 315 315 316 317 317 317 319 319 313 307 309 311 313 317 318 313 308 309 311 308 307 308 307 305 306 310 315 314 306 300 300 301 300 300 299 299 299 299 298 299 298 298 299 299 299 299 299 299 299 299 300 300 300 300 300 300 300 300 300 300 300 300 300 300 300 300 300 300 300 300 300 300 300 300 300 302 305 308 309 309 309
310 310 311 312 314 314 315 316 316 317 318 317 313 308 306 309 313 315 319 318 311 307 309 309 308 308 308 306 306 308 309 309 307 303 299 300 300 299 299 299 298 299 298 298 298 298 298 298 298 298 298 298 298 298 298 298 298 298 298 298 298 298 298 298 298 298 298 299 299 299 299 299 299 300 300 300 299 300 300 299 300 301 304 306 308 309
312 311 311 312 313 313 314 314 314 316 316 311 307 305 306 312 317 317 314 311 308 307 307 307 308 308 308 307 307 306 304 303 302 300 299 300 299 299 299 298 298 298 297 297 297 297 297 297 297 296 296 296 296 296 296 296 296 296 296 296 296 296 296 297 297 297 297 297 297 297 298 298 298 298 298 299 299 299 299 299 299 300 301 303 305 307
312 312 312 312 313 313 314 313 314 316 313 308 307 308 308 313 318 315 308 305 306 307 307 307 306 306 306 306 305 302 300 300 300 299 299 299 299 298 298 297 297 297 297 296 296 296 296 296 296 296 295 295 295 295 295 295 295 295 295 295 295 296 296 296 296 296 296 296 296 296 296 296 297 297 297 297 298 298 298 299 299 299 300 301 303 305
312 313 313 313 313 313 314 314 314 314 310 307 309 312 310 310 311 310 307 306 305 305 305 305 304 304 304 304 301 300 299 299 299 299 299 299 298 298 297 297 297 297 296 296 296 296 296 296 295 295 295 294 294 294 294 295 295 295 295 295 295 295 295 296 296 296 296 296 296 296 296 296 296 296 296 296 297 297 297 298 298 298 299 300 301 303
311 310 311 312 312 312 313 313 312 308 306 306 307 309 309 308 308 309 309 309 306 304 305 304 302 301 301 301 300 299 299 299 299 299 298 298 298 298 297 297 297 296 296 296 296 296 296 295 295 295 294 294 294 294 294 294 295 295 295 295 295 295 295 295 295 295 295 295 296 295 295 295 295 295 295 296 296 297 297 297 298 298 298 299 300 302
304 303 305 310 311 310 308 307 305 304 304 305 305 306 308 308 308 308 309 308 307 305 304 302 301 301 301 300 300 299 299 299 299 299 298 298 298 297 297 297 297 297 296 296 296 296 296 295 295 294 294 294 294 294 295 295 295 295 295 295 295 295 295 295 295 295 295 295 295 295 295 295 295 295 295 295 296 296 297 298 299 299 299 300 300 302
301 301 304 308 311 312 311 306 303 302 303 303 304 306 306 307 308 308 308 308 306 303 302 302 301 301 302 301 300 299 299 299 299 298 298 298 298 297 297 297 297 297 296 296 296 296 295 295 294 294 294 294 294 295 295 295 295 295 294 294 294 294 294 294 294 294 294 294 295 295 295 295 295 295 295 295 295 296 296 297 298 299 299 300 301 301
304 303 306 309 309 309 308 303 299 299 300 300 302 304 305 306 307 306 306 305 303 301 301 302 301 302 302 301 300 299 299 299 298 298 298 298 298 297 297 297 297 296 296 296 295 295 295 294 294 294 294 294 294 295 294 294 294 294 294 294 293 293 294 294 294 294 294 294 295 295 295 295 295 295 295 295 295 296 296 296 297 298 299 299 300 301
304 304 307 309 307 305 304 300 298 300 301 299 299 301 302 303 304 303 303 303 301 300 301 301 301 301 302 301 300 299 298 298 298 298 298 298 297 297 297 296 296 296 295 295 295 294 294 294 294 294 294 294 294 294 294 294 293 293 293 293 293 293 293 293 293 293 293 294 294 294 294 294 294 294 294 294 294 295 295 296 297 297 298 298 299 300
303 306 306 306 307 307 306 303 302 305 306 300 298 299 299 300 301 301 301 301 301 300 301 301 300 300 300 299 299 298 298 298 298 298 298 297 297 296 296 296 295 295 294 294 294 294 294 294 294 294 294 294 293 293 293 292 292 292 292 292 292 292 292 292 292 292 293 293 293 293 293 293 293 293 293 293 293 293 294 294 296 297 297 297 298 299
302 306 305 306 307 307 305 303 302 304 305 301 298 298 298 298 299 299 299 299 299 299 299 298 298 298 298 298 298 297 297 298 297 297 297 296 296 295 295 295 294 294 294 294 294 294 294 294 294 293 293 293 293 292 292 292 291 291 291 291 291 291 291 291 291 291 292 292 292 292 292 292 292 293 293 293 293 293 293 293 294 295 296 297 298 298
Wind_Speed
5 4 3 5 7 8 7 6 6 6 6 7 6 4 4 4 2 3 3 5 2 3 3 4 4 8 11 10 15 22 16 12 18 20 21 21 20 21 21 23 24 24 25 22 20 20 21 22 23 24 24 23 24 24 24 24 24 23 23 24 24 23 24 26 27 28 28 29 30 30 30 30 30 29 29 29 29 29 29 30 31 31 30 30 31 31
4 5 6 6 6 7 6 6 7 6 6 6 6 5 2 2 2 2 2 4 4 1 2 2 4 9 11 10 15 19 13 12 18 19 21 23 22 24 24 26 27 28 28 27 26 25 25 26 26 26 25 25 25 24 23 24 23 23 23 24 23 22 24 25 25 26 27 28 28 29 29 28 29 29 29 29 29 30 30 30 29 30 32 34 34 33
3 4 7 6 7 8 7 6 8 7 7 5 4 5 3 2 2 3 3 4 5 0 3 4 5 9 11 10 14 16 12 16 22 21 22 24 25 28 28 28 29 29 30 28 27 26 26 26 25 25 25 25 25 24 24 24 24 24 25 24 23 22 23 23 23 24 24 25 26 27 28 28 29 29 28 28 28 29 30 30 29 30 33 35 37 37
4 5 6 9 10 10 6 4 9 8 5 4 4 5 3 2 1 1 2 4 4 2 1 3 4 7 8 7 10 11 11 16 19 19 21 22 25 28 27 27 28 29 29 27 25 23 20 21 22 24 24 25 25 25 25 24 24 24 24 24 23 23 23 22 22 22 22 23 24 26 27 28 29 30 30 30 30 30 30 30 30 31 32 33 36 37
4 4 4 10 7 8 7 3 7 7 3 2 3 6 4 3 4 3 1 2 3 3 2 3 4 6 5 5 7 5 5 10 11 12 15 15 17 20 20 21 21 22 23 22 19 15 13 13 14 17 20 22 23 23 23 23 23 23 23 23 24 24 24 22 22 21 21 23 24 26 27 28 30 31 32 32 32 32 31 30 29 30 31 32 34 36
3 1 7 10 4 6 8 3 4 6 3 1 3 6 6 7 6 2 2 4 4 4 4 4 3 5 5 5 7 5 7 9 9 10 12 11 11 14 16 18 18 19 19 19 18 15 12 11 11 13 15 16 17 17 19 20 21 22 21 22 23 24 24 22 22 21 22 23 23 24 26 27 29 31 32 32 30 29 29 28 28 28 29 30 33 35
1 2 5 7 6 6 7 4 5 6 6 1 4 5 7 8 8 6 5 4 2 1 2 3 3 4 7 6 7 6 8 11 10 9 10 11 11 12 14 16 17 18 17 16 15 12 9 8 8 9 11 12 12 12 14 16 17 18 18 18 19 20 21 21 21 21 21 22 22 23 24 25 27 29 30 29 28 28 28 28 28 28 28 28 30 31
2 4 4 5 6 6 6 4 5 6 8 3 3 6 8 8 8 7 6 4 2 2 4 4 4 1 5 6 7 6 7 10 9 8 10 11 10 9 8 7 6 6 5 4 4 2 2 1 2 4 6 7 8 9 10 11 12 13 13 13 14 15 16 17 18 19 20 20 21 21 22 23 25 27 27 27 27 28 28 29 29 29 28 28 28 28
2 5 5 6 6 4 4 4 5 9 6 3 3 7 7 7 7 5 6 4 0 1 3 5 2 1 5 7 6 6 5 9 8 7 9 10 11 12 12 11 10 10 10 10 9 9 8 6 4 2 0 1 3 4 6 7 8 9 9 9 10 10 11 13 14 16 17 18 19 20 21 23 24 24 25 26 28 28 29 30 30 30 30 29 29 28
1 3 5 6 5 4 3 0 2 5 3 4 6 8 7 6 6 5 5 4 2 2 4 5 2 1 5 6 4 3 2 7 7 6 6 7 10 13 15 15 15 15 15 15 14 13 12 10 9 8 6 5 4 2 1 3 4 5 7 7 7 8 8 10 11 13 15 16 17 19 21 23 23 24 24 26 28 29 29 30 30 31 31 30 30 29
1 1 1 2 3 5 6 4 4 4 6 10 7 7 7 6 5 4 3 3 4 2 5 5 3 1 3 6 4 2 3 5 3 3 5 7 11 13 14 15 14 15 15 15 15 14 12 12 11 11 10 10 9 8 7 5 3 1 1 2 4 5 7 8 10 12 14 15 18 19 21 22 23 23 24 26 27 28 29 30 30 30 30 30 30 30
4 3 1 1 3 7 8 6 7 6 7 7 5 5 5 4 4 5 5 3 2 4 6 4 3 1 3 5 3 3 6 5 4 2 3 6 10 11 12 13 13 13 14 14 14 14 13 13 12 13 13 12 12 12 11 11 10 9 8 7 6 5 5 6 7 8 10 12 14 16 18 20 21 22 24 25 26 27 27 28 28 29 29 29 29 29
3 1 2 1 2 5 6 6 5 4 4 5 5 7 5 2 3 3 3 1 2 5 4 3 2 1 5 7 6 8 9 6 6 7 5 6 8 10 10 10 11 12 14 15 16 17 17 18 18 18 17 16 15 14 14 14 14 14 14 14 13 12 12 11 11 11 11 12 12 13 15 17 18 20 22 24 24 25 25 26 26 27 27 27 27 27
1 4 2 2 2 4 4 6 4 1 1 4 6 6 4 3 2 2 4 2 3 4 3 4 2 1 4 6 8 11 10 7 8 8 6 5 7 8 8 8 11 13 16 18 20 22 23 23 23 22 20 18 17 17 17 17 17 18 18 18 17 17 17 16 16 16 16 16 16 16 17 17 19 20 22 23 24 24 24 25 25 26 25 25 25 24
3 3 3 3 2 4 3 3 6 6 4 3 3 6 5 5 5 4 4 3 4 3 3 4 2 3 3 3 6 9 10 10 9 10 7 5 5 6 5 7 12 15 19 21 23 24 24 23 22 21 20 18 17 17 17 18 18 19 19 19 19 19 18 18 18 18 18 18 18 19 20 20 21 21 22 23 24 24 24 24 24 24 24 23 23 22
4 3 4 2 1 5 3 2 4 7 3 1 2 5 3 4 5 3 3 5 3 0 2 2 3 4 3 5 7 6 10 9 5 7 8 6 4 1 7 11 15 18 20 21 22 22 21 20 20 19 18 17 16 16 16 16 17 17 18 19 19 19 18 18 18 18 18 19 19 20 20 21 22 22 23 24 24 25 24 24 24 24 23 22 21 21
3 2 4 4 2 3 2 1 2 3 3 2 2 3 4 4 7 6 1 1 3 1 3 1 3 5 4 6 7 4 4 6 4 4 4 5 4 6 11 15 18 19 19 19 19 19 18 17 18 18 17 16 16 15 15 15 15 16 18 19 19 18 18 18 18 19 20 20 21 21 21 20 21 22 23 24 25 25 25 25 25 24 22 21 20 20
5 2 4 2 2 3 2 5 6 5 3 4 3 5 4 3 5 5 2 3 4 2 4 1 3 4 2 3 6 6 1 5 6 5 2 3 6 10 14 17 18 18 18 17 16 16 15 16 17 18 18 18 17 17 16 14 12 14 17 17 17 18 18 18 19 19 20 21 21 21 22 21 20 21 22 24 24 25 26 26 25 24 23 21 20 20
5 3 3 2 2 3 3 5 4 6 5 4 5 4 4 3 2 2 2 1 1 2 4 4 3 3 3 4 5 3 4 6 6 5 3 3 7 11 16 17 17 17 16 15 15 14 15 17 18 18 18 18 18 18 16 14 11 12 15 16 16 16 17 17 17 18 18 20 21 21 22 23 22 21 21 23 24 25 26 26 25 25 23 22 21 20
4 4 2 2 1 2 3 2 5 1 4 5 4 3 3 3 4 2 2 4 3 3 2 4 3 3 6 6 5 7 7 6 6 5 3 6 10 14 18 18 16 15 15 15 15 15 16 18 18 18 18 18 18 17 17 15 12 13 15 15 15 16 16 16 17 18 18 19 21 21 22 23 24 24 22 22 24 25 26 25 25 24 24 23 22 21
3 3 3 2 3 1 1 3 6 7 3 3 3 3 1 2 2 1 1 3 4 4 3 2 3 5 6 4 6 8 7 6 8 7 7 10 16 19 19 17 14 13 14 14 14 16 17 17 16 15 14 15 15 15 15 14 13 13 13 15 16 16 16 17 18 19 20 21 22 22 22 23 24 24 23 22 22 24 24 23 24 24 24 24 23 23
2 3 4 2 0 3 4 3 3 5 6 6 5 6 6 4 4 3 2 1 3 3 4 3 3 7 6 3 5 6 6 7 7 9 11 14 19 20 17 15 12 11 12 11 13 16 16 16 15 13 12 12 13 13 14 13 13 13 13 14 16 16 17 19 20 21 22 23 24 25 25 24 24 25 25 23 21 21 21 21 22 23 24 24 23 24
3 4 4 2 3 5 3 2 1 2 3 4 3 4 6 4 5 6 5 4 2 2 2 3 1 7 6 3 5 7 6 6 7 12 16 18 19 17 15 12 10 10 9 9 14 15 15 15 14 13 13 13 13 14 14 14 14 15 15 16 17 18 18 19 20 21 23 24 24 25 24 24 24 25 25 23 21 20 20 20 21 22 23 23 23 25
3 4 4 0 3 3 4 4 3 2 2 2 3 3 5 4 3 5 5 4 4 3 3 3 2 6 6 3 4 6 6 4 8 14 18 20 17 13 11 9 8 7 5 10 13 13 13 13 13 12 13 13 14 15 15 15 16 16 17 18 18 19 19 20 21 21 22 23 23 22 22 22 22 24 24 24 23 21 20 21 22 23 24 24 24 26
5 2 4 3 2 3 4 3 3 2 1 4 3 3 4 4 6 4 2 4 1 5 6 5 4 6 6 4 4 3 1 3 7 12 17 17 13 10 10 8 6 4 7 11 11 11 12 11 12 13 13 14 14 16 16 17 17 18 18 19 19 18 18 19 20 20 20 20 20 20 20 20 21 22 23 24 24 24 22 22 22 23 25 26 26 28
8 3 5 6 6 7 6 4 4 4 3 2 2 3 4 6 8 5 3 4 3 5 6 6 5 5 5 5 5 3 1 4 7 11 13 10 6 6 7 6 5 7 9 9 9 11 12 13 15 16 16 16 16 17 18 18 18 18 16 16 16 17 17 17 17 17 17 17 17 17 17 18 19 20 21 22 23 24 24 24 24 25 26 27 28 29
4 1 6 8 10 11 8 5 4 6 6 4 4 6 6 7 9 6 4 4 5 3 4 7 6 4 5 6 4 4 5 5 7 10 10 6 4 3 3 4 7 7 7 7 10 12 15 18 19 18 18 18 18 18 18 18 17 16 15 14 14 16 16 16 15 15 15 15 15 15 16 17 18 19 20 21 22 23 24 25 26 27 28 29 30 31
4 3 7 7 10 8 5 5 4 7 8 9 8 9 9 9 9 8 8 10 6 5 7 9 7 7 8 7 7 8 7 6 8 11 8 4 1 1 4 6 6 5 6 9 12 15 17 19 19 19 19 19 19 19 18 17 16 14 14 14 15 16 17 17 17 16 15 15 15 16 16 17 18 19 20 21 22 23 24 25 26 28 29 30 32 33
4 5 6 5 8 6 3 4 5 6 7 8 11 12 12 12 12 13 15 13 8 7 13 7 11 11 11 8 10 11 10 11 11 10 6 2 4 5 6 7 7 8 10 12 13 14 15 16 17 17 18 18 19 19 17 15 14 13 13 15 16 17 18 18 18 18 18 18 18 19 19 19 20 21 22 23 24 25 26 27 27 28 29 30 32 34
3 4 4 6 7 7 4 4 4 7 6 5 9 12 12 14 16 17 18 17 12 13 14 6 10 14 10 9 11 11 12 14 10 7 6 6 6 8 9 10 10 10 11 10 10 11 11 12 13 13 14 14 15 15 14 14 14 14 15 17 18 18 19 19 20 20 21 21 22 22 23 23 24 24 25 26 27 28 29 29 29 29 30 30 31 33
3 3 2 6 4 6 3 4 4 6 7 6 7 8 10 12 15 16 17 14 9 11 12 4 6 11 6 9 11 9 9 10 7 8 10 9 9 9 9 8 7 8 9 8 8 8 8 8 8 8 9 10 11 12 13 13 14 16 17 18 19 20 20 21 21 22 23 23 24 25 26 27 27 28 29 29 30 31 32 32 32 32 32 31 32 32
3 2 1 5 3 5 2 5 5 3 2 3 5 8 12 12 12 13 12 9 9 11 12 8 8 11 5 10 9 7 7 9 12 14 13 10 8 7 6 5 6 8 8 8 8 7 5 5 5 6 6 8 9 11 13 14 15 17 18 19 20 21 22 22 23 24 24 25 26 27 28 30 30 31 31 32 32 33 33 34 34 34 34 33 33 34
4 4 2 4 5 4 2 5 7 6 4 4 8 12 15 13 11 9 6 8 11 11 10 10 11 8 5 10 9 6 8 13 16 14 11 10 9 7 7 8 8 9 9 8 8 6 4 4 5 7 8 9 11 12 14 15 17 18 19 20 21 22 23 23 24 25 26 26 28 29 30 31 32 33 33 33 33 34 34 34 35 35 35 35 35 35
3 5 3 3 4 2 2 5 7 4 5 7 6 10 15 16 14 11 10 13 14 11 9 9 7 2 6 9 10 9 10 11 13 13 11 10 10 8 9 9 9 8 8 6 5 3 3 4 5 7 9 10 12 13 14 16 17 18 19 20 21 22 23 24 24 25 26 27 28 29 30 31 32 32 33 33 34 34 35 35 35 35 36 37 37 37
4 5 3 2 3 2 2 4 4 6 9 5 3 4 11 14 14 14 14 13 11 10 10 11 9 5 9 11 11 12 12 10 10 11 10 10 10 10 10 10 9 8 7 5 3 1 2 4 5 7 9 11 12 13 15 16 17 18 19 20 21 22 23 24 25 25 26 27 27 28 29 30 31 32 33 34 35 35 36 36 37 37 37 38 39 39
5 4 2 2 2 3 3 4 6 5 3 2 4 3 4 5 6 8 10 10 8 10 11 13 15 10 9 11 10 11 13 13 13 11 11 12 11 10 11 11 9 8 6 4 2 0 2 4 7 8 10 12 13 14 15 16 17 18 18 19 20 21 22 23 24 24 25 26 27 28 29 31 32 34 34 35 36 37 38 38 39 39 39 39 40 40
6 4 2 2 4 3 4 6 5 3 4 3 5 4 4 7 8 8 8 10 10 13 13 12 15 11 9 10 11 16 18 14 10 8 11 13 12 12 11 10 9 8 5 4 3 2 3 5 6 8 9 11 13 15 16 16 17 18 19 19 20 21 22 23 24 24 25 26 27 28 30 31 33 34 36 36 37 38 39 40 41 41 41 41 41 40
4 4 4 4 4 3 5 6 3 3 8 8 6 4 7 12 13 11 7 8 7 14 20 16 12 10 10 11 15 20 17 8 2 6 12 14 13 13 11 9 8 6 5 4 2 2 3 4 6 8 9 10 12 15 16 18 19 20 21 22 23 24 25 25 26 27 27 28 28 29 30 31 33 34 35 36 37 38 39 40 41 41 41 41 41 41
2 3 5 4 3 3 5 5 4 5 7 6 5 5 9 16 15 10 5 8 5 11 21 18 12 12 14 16 20 19 12 4 5 8 14 16 14 13 11 9 7 5 4 3 1 1 3 5 7 8 11 12 13 15 17 19 20 21 23 24 25 27 28 29 30 30 31 32 31 32 32 33 34 35 36 36 37 37 38 39 39 40 41 41 41 41
4 3 4 5 5 5 5 5 3 3 4 4 5 5 9 17 16 10 4 9 3 10 21 22 19 18 18 22 22 15 7 6 7 12 18 17 15 13 10 8 6 4 2 1 2 3 5 8 9 10 13 14 16 18 19 21 22 23 25 26 27 29 31 32 33 34 34 35 35 35 35 35 36 37 37 38 38 38 38 39 39 40 40 41 42 43
4 3 4 6 6 7 8 5 2 2 4 5 4 6 14 17 12 6 8 6 6 14 18 19 19 16 18 23 22 13 7 7 11 18 20 16 14 12 8 6 4 2 3 4 6 8 9 11 12 14 16 18 20 21 23 24 25 26 27 28 29 31 32 33 35 35 36 37 37 37 37 37 38 38 38 39 40 40 40 39 40 40 41 41 42 43
4 3 3 6 6 5 6 5 2 3 5 5 5 8 14 11 4 7 6 3 10 16 13 11 13 14 17 22 21 16 13 15 18 20 17 14 12 9 6 4 2 3 5 7 10 12 13 15 16 17 19 20 22 23 25 26 27 28 29 30 30 32 33 34 35 36 37 38 38 38 38 38 39 39 39 40 40 41 42 41 41 41 42 43 43 43
6 5 3 4 5 4 3 5 5 5 5 13 14 7 7 5 3 7 9 6 8 15 14 14 16 17 19 21 20 20 20 20 18 17 14 12 9 6 3 2 3 5 7 10 12 15 17 19 20 21 22 23 24 26 27 28 29 29 30 30 31 32 34 35 36 37 38 38 39 39 39 40 40 40 40 40 40 41 42 42 42 42 43 44 44 44
5 5 4 4 5 5 4 7 5 2 8 21 15 3 9 9 3 7 12 10 10 15 17 20 20 18 19 21 22 21 18 17 15 13 10 8 5 3 1 2 5 7 10 13 15 18 20 22 24 25 26 27 27 27 28 29 31 31 31 31 32 33 34 35 36 37 38 38 38 38 39 39 39 40 40 39 39 40 41 41 42 42 43 44 45 45
4 4 4 4 5 4 3 5 3 0 10 18 8 1 9 13 6 6 10 12 16 18 18 20 21 18 18 19 20 19 15 13 12 10 7 6 3 1 2 5 7 10 13 15 17 20 22 25 27 28 29 28 27 27 28 29 30 32 31 31 32 33 34 36 36 37 37 37 37 38 38 38 38 38 38 38 38 39 39 39 40 40 41 42 44 45
3 2 2 2 2 2 1 2 3 2 6 12 7 2 8 12 10 8 8 11 18 20 18 19 20 19 18 17 16 14 11 9 7 6 4 3 1 3 5 8 10 12 15 17 20 23 25 27 29 30 30 29 27 26 27 27 28 30 31 31 32 32 34 36 37 37 37 37 37 37 38 38 38 38 38 38 37 38 38 38 38 39 40 41 43 44
2 3 3 1 3 4 3 1 2 2 4 8 9 8 10 11 13 13 11 15 20 20 18 18 17 17 16 13 11 9 7 6 4 3 3 2 3 5 8 11 13 15 18 20 22 25 27 29 31 31 31 30 28 27 27 27 28 29 30 31 33 34 35 36 37 38 38 38 37 37 37 37 37 37 38 37 37 37 37 37 38 39 40 41 42 44
3 6 4 2 3 4 3 2 2 5 6 9 11 12 14 15 16 15 16 20 23 20 17 16 14 14 14 12 10 7 5 4 5 5 5 5 7 9 11 14 16 18 20 22 24 26 28 30 31 31 31 31 30 29 29 29 29 30 31 32 34 35 36 37 38 39 39 39 39 39 38 37 37 37 38 38 37 37 37 37 38 39 40 40 42 43
5 6 5 3 3 2 1 1 4 8 5 6 12 15 17 18 19 19 20 22 22 19 17 15 14 13 13 11 9 7 6 6 7 7 8 9 10 12 14 17 19 21 23 25 27 28 29 30 30 31 31 31 31 31 31 31 31 31 32 33 35 36 37 38 39 40 40 40 41 41 40 40 39 39 39 40 39 38 37 37 38 39 40 40 40 42
6 5 3 3 4 2 2 7 11 7 1 9 16 18 18 19 20 21 22 20 19 17 15 14 13 12 11 9 9 8 8 8 9 9 10 11 13 15 18 20 22 24 26 28 29 29 29 30 31 31 32 32 32 32 32 32 32 32 33 34 35 37 38 39 40 41 41 41 42 42 42 42 42 42 42 42 42 41 40 39 38 39 40 40 40 41
8 8 7 6 5 6 9 18 22 12 4 13 23 23 20 20 20 20 20 18 16 15 13 11 11 10 10 10 10 10 9 9 10 11 12 13 15 18 20 22 25 26 27 28 29 29 30 30 31 32 32 32 32 33 33 34 34 34 34 35 36 38 39 41 42 43 43 43 43 43 43 44 44 44 44 44 43 43 43 42 41 40 40 40 41 41
Wind_Direction
109 122 162 184 187 189 186 154 143 156 140 138 128 107 137 157 230 247 259 308 32 137 249 255 257 277 275 277 280 283 291 289 281 279 274 270 266 263 260 259 258 254 255 255 251 248 250 254 258 261 261 258 257 256 255 254 252 253 254 255 256 257 257 255 255 255 255 255 256 256 257 259 262 262 263 264 264 263 261 261 263 267 268 266 266 265
105 156 210 213 189 165 146 124 110 103 90 100 128 128 128 168 215 246 249 321 9 137 254 339 318 278 268 272 273 278 288 277 269 266 264 264 262 262 262 261 260 259 260 260 259 259 261 263 264 263 260 255 253 252 251 250 249 249 250 252 255 257 257 256 257 257 257 258 259 260 262 265 266 265 266 267 268 268 268 268 267 266 268 270 271 271
124 207 229 195 143 109 91 89 94 93 88 87 115 129 148 204 232 286 302 338 10 53 262 342 339 281 269 270 270 270 266 265 268 264 263 265 264 264 262 262 264 263 264 263 263 264 266 268 266 262 257 254 253 251 250 248 246 246 247 250 253 255 257 258 260 259 261 263 263 264 266 267 268 269 269 270 271 269 267 268 266 262 261 262 266 271
169 254 232 164 138 113 87 66 91 87 79 92 110 129 169 230 151 215 282 338 8 69 262 309 312 285 284 292 282 272 261 267 273 269 265 263 262 265 265 266 267 265 265 265 265 267 269 268 264 260 256 253 252 250 248 247 247 248 248 252 253 254 256 258 260 263 265 265 265 265 265 265 266 266 267 267 268 268 266 265 264 262 259 258 262 269
192 273 160 140 131 123 115 86 107 105 67 67 138 138 158 193 171 190 254 355 0 24 31 10 326 296 314 324 295 301 300 280 282 280 274 265 262 268 271 270 269 268 268 267 265 268 274 270 258 255 252 250 250 248 248 248 248 249 250 252 252 253 254 256 259 263 264 264 263 263 261 261 261 261 262 262 263 265 266 268 268 268 263 257 256 259
220 254 133 129 99 113 122 146 171 140 112 306 210 174 168 167 154 131 68 63 36 1 356 27 3 291 316 318 273 308 341 307 301 298 288 284 280 279 278 276 273 272 271 270 271 273 274 268 254 249 247 246 247 244 244 244 243 244 246 248 249 251 252 254 258 261 263 263 264 264 263 263 263 263 263 265 268 270 272 275 276 275 271 265 259 255
205 89 117 125 121 120 122 174 204 147 122 191 229 171 142 127 122 123 111 88 98 241 326 44 119 258 315 311 271 312 335 308 307 310 310 321 314 301 294 286 280 276 274 272 272 270 264 262 255 248 244 243 242 239 240 240 239 238 239 242 245 247 249 252 255 259 262 264 266 268 269 270 270 270 271 273 276 277 277 277 276 275 273 270 265 262
125 105 86 99 108 116 134 190 210 144 126 198 226 122 119 120 128 138 113 97 195 228 330 10 105 205 298 279 276 332 333 305 313 317 325 348 353 349 342 323 305 288 277 251 234 217 183 199 237 248 252 250 244 242 242 240 237 235 235 237 240 243 246 250 255 259 263 266 269 272 274 275 274 274 277 279 279 278 278 277 276 276 275 273 270 268
97 151 172 138 111 130 173 214 190 135 113 233 188 110 115 121 123 121 97 94 304 331 303 317 45 168 268 277 303 353 327 294 306 302 311 351 18 33 45 57 70 82 90 99 106 100 95 95 90 85 341 269 248 244 239 234 232 230 232 235 238 242 247 252 257 261 265 268 271 273 274 275 276 278 279 279 278 277 277 277 278 278 277 277 275 273
63 176 193 147 134 173 185 293 152 119 99 169 139 94 81 75 81 81 86 103 48 38 240 269 3 147 266 285 311 2 294 267 279 279 291 350 30 45 53 63 74 79 84 90 94 92 89 88 84 81 79 79 83 97 156 207 220 226 234 240 245 250 254 258 261 264 267 269 270 271 272 274 275 277 278 277 277 276 277 278 279 279 280 280 279 277
326 86 119 109 135 160 135 77 57 78 123 138 114 73 63 36 35 48 52 85 62 333 250 260 314 54 271 284 269 215 221 228 252 305 308 350 31 45 49 58 68 75 80 84 85 84 82 81 80 78 74 72 71 71 73 78 86 108 244 261 268 270 270 269 268 268 267 267 268 269 271 273 275 276 276 275 275 277 278 279 280 281 281 280 279 278
1 70 33 31 127 128 108 65 48 70 106 113 90 88 81 5 7 24 360 38 91 255 262 285 313 135 207 264 256 240 255 234 209 231 282 326 5 26 38 51 64 76 82 82 81 79 78 75 72 69 67 64 64 63 61 58 54 50 44 35 22 3 344 322 305 294 285 279 277 277 277 277 277 276 275 275 276 277 278 278 280 280 279 278 277 277
27 72 311 14 178 162 116 79 53 31 43 74 97 105 92 12 8 0 316 346 204 240 279 312 306 192 229 252 261 268 270 241 225 237 251 297 341 6 22 45 69 84 87 87 87 84 81 77 70 65 60 55 53 49 47 45 41 39 37 32 27 20 11 1 350 337 326 317 310 303 296 291 287 282 280 280 280 280 279 278 277 275 275 275 274 274
335 308 308 101 226 224 154 124 134 225 134 124 133 128 127 122 90 262 264 289 257 255 304 307 299 267 267 268 248 249 256 246 255 264 258 282 326 351 12 51 81 91 93 93 92 87 82 76 69 65 60 56 52 47 45 44 41 40 38 35 31 25 18 10 360 348 336 327 319 311 306 303 299 294 291 288 285 282 279 276 274 273 272 272 272 272
176 273 234 166 199 194 174 158 152 143 132 157 154 127 143 155 148 202 217 204 233 270 309 305 296 192 211 267 231 240 272 278 268 259 246 258 307 349 38 83 96 99 99 97 93 87 80 72 66 64 62 61 58 53 50 46 42 40 36 33 29 24 18 12 5 356 345 335 324 314 307 303 301 300 297 292 287 282 279 275 273 272 271 271 271 271
164 241 260 308 278 149 156 210 133 110 107 216 127 108 156 183 138 136 178 173 170 301 302 279 248 210 214 279 272 273 291 292 267 241 233 236 265 57 100 110 109 106 103 100 95 86 76 68 65 61 59 58 54 49 44 40 38 35 29 24 20 17 12 6 1 354 348 342 334 326 316 306 298 296 296 295 290 283 279 276 273 270 269 268 267 267
157 249 311 350 18 75 97 192 100 106 163 158 126 167 210 166 114 112 182 52 78 183 267 242 248 289 318 290 304 347 306 300 311 264 219 198 189 124 116 118 115 111 106 102 95 85 74 65 61 58 53 50 45 40 34 33 31 25 19 14 11 8 3 359 353 347 344 340 337 334 329 319 305 294 291 291 291 287 281 276 272 270 268 265 265 265
154 147 327 30 81 7 29 91 64 42 99 122 174 201 186 117 95 107 148 12 41 234 276 290 233 288 333 256 320 2 293 269 283 287 288 177 151 124 123 123 118 113 105 99 94 87 75 63 56 49 41 35 32 29 27 27 21 12 8 3 360 357 353 350 344 340 337 333 333 332 329 325 315 300 288 286 289 289 285 279 275 272 268 265 264 263
133 123 316 18 122 307 357 93 83 21 41 108 169 161 117 131 143 91 131 152 128 229 280 305 270 257 205 221 300 306 220 224 235 266 302 158 139 128 132 127 119 115 106 100 100 88 67 53 43 34 27 21 18 15 15 17 12 1 356 352 347 344 343 341 336 332 331 328 328 328 325 323 320 312 298 288 287 288 286 281 276 271 267 264 263 261
121 126 242 314 278 296 14 108 184 209 26 53 103 110 83 125 157 158 148 161 178 195 254 309 324 262 227 217 222 228 223 201 194 222 225 156 142 139 137 127 118 115 108 100 91 70 48 38 30 23 17 11 8 5 2 2 357 348 343 338 334 331 331 329 325 325 326 327 327 325 322 320 319 319 310 297 290 288 287 282 277 273 270 268 265 263
106 132 191 315 331 221 176 217 191 172 141 90 111 152 169 74 111 159 91 116 143 158 186 259 300 271 249 207 201 221 223 203 185 177 176 159 146 143 136 126 119 113 106 93 69 44 32 27 23 19 12 4 360 355 350 349 344 336 330 324 323 322 321 319 318 321 323 325 326 324 320 317 316 317 314 307 298 293 291 287 282 280 279 276 273 273
135 148 162 132 285 201 222 255 201 174 168 156 167 180 174 147 120 150 248 237 125 143 171 174 259 272 259 202 210 228 227 228 204 162 157 153 143 138 133 127 119 112 106 80 42 25 22 22 21 18 10 359 350 342 338 336 333 330 326 324 323 322 319 315 315 317 320 322 324 324 322 317 313 313 313 312 306 299 296 293 288 286 284 281 281 283
116 109 121 144 214 213 243 283 219 202 149 133 185 189 165 160 137 153 210 222 131 134 147 123 251 272 262 215 227 251 256 242 195 157 146 142 136 133 132 126 113 109 100 50 20 16 18 17 15 9 360 350 340 332 328 326 324 325 324 322 321 319 316 314 314 316 318 320 322 322 319 314 308 306 309 311 309 302 295 290 287 285 283 282 282 283
118 109 124 148 301 307 329 356 26 25 79 132 236 185 161 185 149 149 185 170 148 174 140 94 276 269 272 266 259 268 267 230 185 161 144 135 129 123 123 118 109 110 67 17 13 16 15 13 8 360 349 340 333 327 325 323 321 322 322 320 319 318 317 317 318 319 319 320 320 319 315 310 304 303 304 306 307 304 297 289 284 282 280 280 279 279
178 158 134 125 18 352 345 349 337 309 210 198 227 186 163 134 99 102 120 101 144 206 159 149 235 254 274 306 330 333 12 169 187 169 146 133 120 104 102 100 97 76 11 4 10 11 10 8 0 351 344 338 333 329 328 326 325 326 327 326 324 323 322 321 321 321 320 320 320 320 317 312 309 308 307 306 306 306 304 299 292 286 283 280 278 276
175 186 152 153 175 194 203 214 220 210 183 199 199 166 161 135 136 156 119 109 229 223 159 172 227 250 280 313 340 345 119 156 178 173 157 143 118 96 98 86 43 11 3 4 5 4 3 358 350 344 340 337 335 334 334 334 334 335 336 335 330 328 327 326 325 324 323 323 323 324 324 322 321 320 319 317 315 312 310 307 302 298 294 290 285 282
137 220 185 186 202 203 194 197 177 127 140 195 183 158 169 171 169 156 115 170 207 160 179 219 200 191 249 272 276 244 212 185 176 178 180 169 134 102 70 26 7 7 14 10 359 352 347 340 336 334 333 334 335 336 337 338 339 339 339 338 336 334 334 334 333 330 329 328 327 327 327 329 329 329 331 331 329 326 321 315 310 306 302 298 295 292
88 218 203 202 220 215 164 177 182 137 162 189 173 166 181 184 173 165 192 212 164 117 238 231 157 175 228 234 230 225 218 219 203 193 192 178 135 345 342 353 8 15 4 353 345 337 329 323 320 321 323 326 328 328 330 333 336 337 339 340 340 339 340 342 341 340 337 333 331 330 331 332 333 334 336 336 335 333 329 326 322 316 311 306 302 298
118 209 206 188 222 230 139 173 195 162 175 182 172 181 185 178 178 188 212 217 158 177 239 198 149 203 224 208 222 219 203 206 202 190 192 229 291 315 331 343 359 358 343 339 333 324 317 313 312 315 316 318 319 320 322 327 331 335 337 339 341 341 340 342 342 342 340 338 337 336 336 335 334 335 336 335 334 332 330 328 326 323 319 314 308 303
148 210 192 166 214 238 195 186 192 171 174 174 182 191 183 181 192 197 214 220 195 214 241 170 164 224 222 192 220 224 211 212 200 191 225 261 293 315 325 328 339 343 335 329 320 309 306 306 308 311 311 313 315 317 322 328 333 336 338 339 341 341 341 341 340 340 339 339 338 338 336 334 334 334 334 333 331 330 329 328 327 325 322 317 311 307
183 220 169 138 197 251 208 170 189 185 187 195 198 198 187 192 204 209 218 222 203 228 250 207 203 252 230 183 214 226 217 221 219 230 255 283 303 308 314 318 319 313 308 308 304 299 299 300 304 308 310 314 319 322 326 331 335 337 338 338 339 339 340 339 338 337 336 336 336 335 333 332 332 332 331 330 329 327 327 326 325 324 322 319 315 310
173 207 66 107 172 257 234 160 169 141 146 228 228 204 195 198 208 215 219 209 191 217 238 231 239 258 217 172 198 212 203 221 241 251 264 283 284 278 276 261 253 259 267 274 280 288 298 305 317 329 331 332 331 331 331 332 336 336 335 336 336 335 335 333 332 332 332 332 331 330 329 328 328 328 327 326 325 324 323 323 322 321 320 318 317 313
155 146 120 141 176 267 303 143 135 99 100 252 244 210 200 202 207 213 224 223 211 206 211 221 235 244 180 161 179 197 203 221 236 241 246 246 236 232 229 220 222 230 235 246 259 275 302 330 350 352 350 346 339 338 338 337 339 338 336 336 335 332 330 329 328 329 328 329 328 327 327 326 325 324 323 322 321 320 320 321 320 320 319 317 315 314
129 125 153 171 155 250 274 122 113 130 198 234 237 196 192 199 201 200 211 221 217 207 211 232 244 199 147 164 179 190 198 211 221 221 220 221 218 207 199 196 199 205 210 224 239 259 308 337 355 354 351 348 342 342 342 339 341 341 338 337 335 332 330 328 329 329 328 329 329 328 328 327 325 323 322 321 320 319 319 319 318 318 317 315 313 312
127 127 148 147 124 159 177 116 137 208 222 245 294 199 191 196 194 198 218 230 216 208 224 247 258 220 174 183 188 185 185 182 188 198 194 191 197 192 183 179 179 181 179 181 196 228 316 325 337 344 345 345 342 342 341 339 339 340 339 338 336 334 332 331 331 331 330 331 332 331 330 328 326 325 324 323 321 320 319 318 318 317 317 315 313 312
141 138 129 129 144 135 136 176 205 233 260 302 301 270 171 156 158 187 239 258 227 205 211 228 243 232 184 190 195 175 170 162 157 165 166 166 174 173 170 168 161 159 155 144 143 46 354 337 335 340 343 344 342 339 339 338 337 338 338 338 336 335 333 333 332 331 331 332 333 333 331 329 327 326 324 324 322 321 320 319 318 318 318 316 314 313
147 148 132 176 202 177 178 209 229 317 318 259 247 239 160 151 156 169 224 249 224 204 199 212 237 231 183 184 180 158 154 147 137 151 158 155 156 157 160 159 150 147 142 122 99 40 19 360 346 341 339 339 337 333 333 335 335 335 336 335 334 333 332 331 331 330 331 332 333 333 332 330 328 326 324 323 322 320 318 318 318 319 319 317 315 315
158 178 177 195 215 184 192 222 223 240 247 236 219 208 183 180 173 164 199 244 230 204 201 205 228 220 176 162 160 154 150 143 159 186 163 151 152 153 152 151 147 141 135 125 103 45 15 358 349 343 337 335 333 330 329 330 331 331 331 331 330 329 328 328 328 327 328 329 330 330 330 328 326 325 323 323 322 320 318 316 315 316 317 317 316 316
154 181 179 198 217 175 193 224 207 208 243 242 214 209 191 180 163 135 187 247 248 196 198 203 218 214 187 171 166 157 150 177 231 187 161 154 155 155 152 151 150 142 137 139 115 352 335 337 341 338 334 331 330 329 327 326 326 326 326 326 325 325 324 323 323 323 323 324 325 325 325 324 323 322 321 321 320 320 318 316 315 314 314 315 315 315
171 169 186 204 209 196 200 220 219 224 254 248 232 225 180 164 144 122 203 249 229 173 189 199 210 213 197 179 171 162 171 224 213 169 159 158 157 156 155 150 147 138 117 66 352 338 331 332 329 326 326 326 326 326 323 320 320 320 320 320 320 320 319 318 318 318 318 318 319 319 319 319 318 318 317 317 317 316 316 315 314 312 311 311 311 311
175 172 195 204 209 209 210 223 261 262 245 243 234 183 157 146 137 166 218 232 182 177 189 198 204 204 190 177 172 173 189 190 164 155 156 157 156 154 150 137 126 85 31 4 345 338 334 332 330 329 330 329 327 326 323 319 318 318 317 318 318 317 316 315 315 314 314 314 314 313 313 313 313 313 313 313 313 312 311 312 312 311 310 309 308 308
171 175 194 205 209 211 220 232 253 263 239 192 142 150 154 146 174 215 199 166 179 182 183 185 182 175 173 175 173 164 146 137 143 149 150 153 153 145 132 116 82 17 358 348 340 336 332 330 330 330 330 330 329 327 324 321 320 319 319 319 319 318 316 315 314 313 312 312 312 312 312 311 311 311 310 310 310 309 308 308 309 309 308 308 307 306
174 175 183 198 195 192 219 216 213 259 211 146 126 126 173 180 217 186 150 125 175 175 161 155 155 152 157 161 156 148 140 138 145 148 146 149 146 127 114 84 10 348 339 338 335 332 331 330 330 330 330 331 331 328 326 323 321 320 320 320 319 317 316 315 314 313 312 312 312 313 313 312 311 311 311 310 310 308 307 307 307 306 306 306 306 305
191 186 188 200 192 183 204 208 210 268 167 154 144 156 198 193 181 147 146 142 155 159 150 144 143 146 153 152 146 145 146 145 146 146 145 147 143 127 105 349 343 335 334 334 331 330 330 329 328 329 330 330 329 327 324 322 320 320 320 320 319 316 314 313 312 311 311 312 313 313 313 313 312 312 312 311 310 309 308 307 307 306 306 306 306 305
222 201 173 181 192 182 188 207 220 223 169 173 172 74 173 183 178 146 159 160 155 155 152 144 141 143 147 147 144 145 148 147 145 147 148 147 153 209 305 322 326 328 331 331 329 328 327 326 326 326 325 325 324 322 320 318 318 317 318 318 316 314 312 311 310 310 311 312 313 313 313 313 312 311 311 310 309 309 308 307 307 306 306 306 306 306
248 194 130 128 209 227 231 179 165 131 175 189 202 179 173 188 190 175 176 171 160 158 158 154 150 148 148 150 147 143 145 148 148 153 161 165 223 284 300 310 316 322 324 323 324 323 322 322 322 320 319 319 318 318 316 315 314 313 313 313 312 310 309 308 307 308 309 309 311 312 312 311 311 311 310 310 309 308 308 308 308 307 307 307 307 307
273 174 147 136 199 203 235 245 142 140 181 184 185 185 180 184 192 193 190 177 167 162 160 159 157 155 155 157 156 150 150 157 169 194 209 222 273 287 298 308 313 317 319 320 320 319 317 317 316 315 315 315 316 317 316 313 312 312 311 311 310 309 308 307 307 307 308 309 310 310 310 310 310 310 310 309 309 308 307 307 308 307 306 307 308 308
214 172 171 218 195 177 225 287 66 102 145 158 160 171 175 176 182 183 176 169 162 155 153 155 159 165 167 167 171 177 184 200 217 238 252 268 287 297 305 310 312 313 315 316 314 313 313 312 312 312 313 313 315 316 315 314 314 313 312 311 311 310 309 309 309 309 310 310 311 310 310 310 309 309 309 309 309 308 307 307 307 306 305 306 308 308
146 163 179 178 152 125 324 254 114 92 103 165 166 164 166 168 166 160 158 160 161 159 160 161 164 174 178 180 190 209 227 238 245 256 268 278 291 299 304 308 310 311 312 311 311 311 311 311 311 311 312 313 315 315 314 314 314 313 313 313 312 312 311 310 310 310 310 310 311 311 310 310 309 309 308 308 308 308 307 307 307 306 305 305 307 308
138 171 181 118 136 181 230 191 169 143 170 202 180 163 157 160 160 156 156 159 162 167 172 171 171 180 189 198 215 230 238 247 257 266 276 286 296 301 303 306 307 308 309 309 309 309 310 310 310 311 311 312 313 312 312 313 313 313 314 313 312 312 311 310 310 310 310 310 310 310 310 310 309 308 308 307 307 306 306 305 305 305 305 305 305 307
183 186 175 154 174 216 216 196 186 178 178 183 175 164 159 162 163 159 158 159 161 165 170 176 183 192 202 214 226 234 240 250 262 272 284 294 299 302 304 305 304 304 305 306 306 307 308 309 309 309 310 311 311 311 311 311 312 312 312 311 310 310 309 309 309 309 309 309 309 309 309 309 308 308 307 306 306 306 305 304 303 303 303 304 304 305